| time (UTC) | temp F | wind direction | speed knots | gust knots | rain 1hr in | rain 24hr in | rain mn in | humidity % | barometer mb |
| 20260510162248 | 80 | 287 | 1.7 | 1.7 | 0.00 | 0.00 | 0.00 | 48 | 1016.5 |
| 20260510161744 | 79 | 194 | 0.0 | 1.7 | 0.00 | 0.00 | 0.00 | 48 | 1016.7 |
| 20260510161240 | 79 | 101 | 1.7 | 3.5 | 0.00 | 0.00 | 0.00 | 48 | 1016.7 |
| 20260510160737 | 78 | 196 | 0.0 | 5.2 | 0.00 | 0.00 | 0.00 | 47 | 1016.7 |
| 20260510160233 | 78 | 266 | 1.7 | 1.7 | 0.00 | 0.00 | 0.00 | 49 | 1016.5 |
| 20260510155729 | 78 | 275 | 1.7 | 1.7 | 0.00 | 0.00 | 0.00 | 52 | 1016.8 |
| 20260510155225 | 77 | 81 | 0.0 | 1.7 | 0.00 | 0.00 | 0.00 | 54 | 1016.8 |
| 20260510154721 | 77 | 262 | 0.9 | 2.6 | 0.00 | 0.00 | 0.00 | 55 | 1016.8 |
| 20260510154217 | 77 | 330 | 1.7 | 2.6 | 0.00 | 0.00 | 0.00 | 55 | 1016.7 |
| 20260510153712 | 77 | 275 | 1.7 | 2.6 | 0.00 | 0.00 | 0.00 | 58 | 1016.7 |
| 20260510153208 | 77 | 297 | 0.0 | 1.7 | 0.00 | 0.00 | 0.00 | 59 | 1016.7 |
| 20260510152705 | 76 | 270 | 0.0 | 0.9 | 0.00 | 0.00 | 0.00 | 63 | 1016.7 |
| 20260510152201 | 76 | 90 | 0.0 | 1.7 | 0.00 | 0.00 | 0.00 | 63 | 1016.7 |
| 20260510151658 | 76 | 345 | 0.0 | 1.7 | 0.00 | 0.00 | 0.00 | 64 | 1016.8 |
| 20260510151156 | 75 | 127 | 0.0 | 2.6 | 0.00 | 0.00 | 0.00 | 65 | 1016.8 |
| 20260510150652 | 75 | 277 | 0.0 | 2.6 | 0.00 | 0.00 | 0.00 | 66 | 1016.8 |
| 20260510150147 | 75 | 36 | 1.7 | 4.3 | 0.00 | 0.00 | 0.00 | 66 | 1016.7 |
| 20260510145644 | 74 | 0 | 0.0 | 1.7 | 0.00 | 0.00 | 0.00 | 69 | 1016.8 |
| 20260510145140 | 74 | 311 | 0.0 | 1.7 | 0.00 | 0.00 | 0.00 | 71 | 1016.9 |
| 20260510144636 | 73 | 260 | 1.7 | 1.7 | 0.00 | 0.00 | 0.00 | 72 | 1016.8 |
| 20260510144133 | 73 | 291 | 0.9 | 1.7 | 0.00 | 0.00 | 0.00 | 74 | 1016.8 |
| 20260510143628 | 73 | 29 | 1.7 | 2.6 | 0.00 | 0.00 | 0.00 | 75 | 1016.9 |
| 20260510143125 | 72 | 294 | 0.0 | 2.6 | 0.00 | 0.00 | 0.00 | 77 | 1016.8 |
| 20260510142621 | 71 | 48 | 0.0 | 2.6 | 0.00 | 0.00 | 0.00 | 80 | 1016.8 |
| 20260510142118 | 70 | 294 | 0.0 | 0.9 | 0.00 | 0.00 | 0.00 | 79 | 1016.7 |
| 20260510141615 | 69 | 2 | 2.6 | 3.5 | 0.00 | 0.00 | 0.00 | 81 | 1016.7 |
| 20260510141113 | 69 | 114 | 0.0 | 1.7 | 0.00 | 0.00 | 0.00 | 82 | 1016.8 |
| 20260510140609 | 68 | 7 | 1.7 | 4.3 | 0.00 | 0.00 | 0.00 | 83 | 1017.0 |
| 20260510140108 | 68 | 21 | 1.7 | 1.7 | 0.00 | 0.00 | 0.00 | 83 | 1016.9 |
| 20260510135604 | 67 | 180 | 0.0 | 1.7 | 0.00 | 0.00 | 0.00 | 84 | 1016.9 |
| 20260510135100 | 67 | 8 | 0.0 | 1.7 | 0.00 | 0.00 | 0.00 | 85 | 1016.7 |
| 20260510134558 | 66 | 12 | 2.6 | 2.6 | 0.00 | 0.00 | 0.00 | 85 | 1016.8 |
| 20260510134054 | 66 | 69 | 0.0 | 0.9 | 0.00 | 0.00 | 0.00 | 86 | 1016.8 |
| 20260510133550 | 65 | 12 | 1.7 | 2.6 | 0.00 | 0.00 | 0.00 | 87 | 1016.8 |
| 20260510133046 | 64 | 279 | 0.0 | 0.0 | 0.00 | 0.00 | 0.00 | 87 | 1016.8 |
| 20260510132543 | 64 | 0 | 0.0 | 2.6 | 0.00 | 0.00 | 0.00 | 87 | 1016.6 |
| 20260510132040 | 63 | 300 | 0.0 | 0.9 | 0.00 | 0.00 | 0.00 | 88 | 1016.7 |
| 20260510131538 | 63 | 270 | 0.0 | 0.9 | 0.00 | 0.00 | 0.00 | 88 | 1016.6 |
| 20260510131035 | 62 | 0 | 0.0 | 0.0 | 0.00 | 0.00 | 0.00 | 88 | 1016.3 |
| 20260510130531 | 62 | 270 | 0.9 | 0.9 | 0.00 | 0.00 | 0.00 | 88 | 1016.8 |
| 20260510130029 | 61 | 7 | 0.0 | 0.0 | 0.00 | 0.00 | 0.00 | 88 | 1017.0 |
| 20260510125525 | 61 | 279 | 0.0 | 1.7 | 0.00 | 0.00 | 0.00 | 88 | 1016.5 |
| 20260510125021 | 61 | 340 | 0.0 | 0.9 | 0.00 | 0.00 | 0.00 | 88 | 1016.5 |
| 20260510124518 | 61 | 32 | 1.7 | 1.7 | 0.00 | 0.00 | 0.00 | 88 | 1016.5 |
| 20260510124015 | 60 | 90 | 0.0 | 0.9 | 0.00 | 0.00 | 0.00 | 88 | 1016.5 |
| 20260510123510 | 60 | 270 | 0.0 | 0.0 | 0.00 | 0.00 | 0.00 | 88 | 1016.2 |
| 20260510123006 | 60 | 35 | 0.0 | 0.0 | 0.00 | 0.00 | 0.00 | 88 | 1016.2 |
| 20260510122502 | 59 | 8 | 0.0 | 0.0 | 0.00 | 0.00 | 0.00 | 88 | 1015.9 |
| 20260510121958 | 59 | 7 | 0.0 | 0.9 | 0.00 | 0.00 | 0.00 | 88 | 1016.1 |
| 20260510121455 | 59 | 14 | 0.0 | 0.9 | 0.00 | 0.00 | 0.00 | 88 | 1016.0 |
| 20260510120953 | 58 | 90 | 0.0 | 0.0 | 0.00 | 0.00 | 0.00 | 88 | 1015.7 |
| 20260510120450 | 58 | 90 | 0.0 | 0.0 | 0.00 | 0.00 | 0.00 | 88 | 1015.6 |
| 20260510115946 | 57 | 286 | 0.0 | 0.0 | 0.00 | 0.00 | 0.00 | 88 | 1015.6 |
| 20260510115443 | 57 | 352 | 0.0 | 0.0 | 0.00 | 0.00 | 0.00 | 88 | 1015.5 |
| 20260510114939 | 56 | 352 | 0.0 | 0.0 | 0.00 | 0.00 | 0.00 | 88 | 1015.6 |
| 20260510114436 | 56 | 0 | 0.0 | 0.0 | 0.00 | 0.00 | 0.00 | 88 | 1015.3 |
| 20260510113932 | 56 | 0 | 0.0 | 0.0 | 0.00 | 0.00 | 0.00 | 88 | 1015.5 |
| 20260510113427 | 55 | 0 | 0.0 | 0.0 | 0.00 | 0.00 | 0.00 | 87 | 1015.2 |
| 20260510112925 | 55 | 0 | 0.0 | 0.0 | 0.00 | 0.00 | 0.00 | 87 | 1015.3 |
| 20260510112422 | 55 | 0 | 0.0 | 0.0 | 0.00 | 0.00 | 0.00 | 87 | 1015.3 |
| 20260510111918 | 54 | 0 | 0.0 | 0.0 | 0.00 | 0.00 | 0.00 | 87 | 1015.2 |
| 20260510111414 | 54 | 0 | 0.0 | 0.0 | 0.00 | 0.00 | 0.00 | 87 | 1014.9 |
| 20260510110910 | 54 | 0 | 0.0 | 0.0 | 0.00 | 0.00 | 0.00 | 87 | 1014.9 |
| 20260510110406 | 54 | 0 | 0.0 | 0.0 | 0.00 | 0.00 | 0.00 | 87 | 1015.0 |
| 20260510105902 | 54 | 0 | 0.0 | 0.0 | 0.00 | 0.00 | 0.00 | 87 | 1014.8 |
| 20260510105357 | 54 | 0 | 0.0 | 0.0 | 0.00 | 0.00 | 0.00 | 86 | 1014.8 |
| 20260510104853 | 54 | 0 | 0.0 | 0.0 | 0.00 | 0.00 | 0.00 | 87 | 1014.6 |
| 20260510104350 | 54 | 0 | 0.0 | 0.0 | 0.00 | 0.00 | 0.00 | 86 | 1014.4 |
| 20260510103846 | 54 | 0 | 0.0 | 0.0 | 0.00 | 0.00 | 0.00 | 86 | 1014.6 |
| 20260510103343 | 54 | 0 | 0.0 | 0.0 | 0.00 | 0.00 | 0.00 | 86 | 1014.6 |
| 20260510102838 | 54 | 0 | 0.0 | 0.0 | 0.00 | 0.00 | 0.00 | 86 | 1014.3 |
| 20260510102329 | 54 | 0 | 0.0 | 0.0 | 0.00 | 0.00 | 0.00 | 86 | 1014.1 |
| 20260510101826 | 54 | 0 | 0.0 | 0.0 | 0.00 | 0.00 | 0.00 | 86 | 1013.8 |
| 20260510101325 | 54 | 0 | 0.0 | 0.0 | 0.00 | 0.00 | 0.00 | 86 | 1014.0 |
| 20260510100820 | 55 | 0 | 0.0 | 0.9 | 0.00 | 0.00 | 0.00 | 86 | 1014.0 |
| 20260510100319 | 55 | 180 | 0.0 | 0.0 | 0.00 | 0.00 | 0.00 | 86 | 1013.9 |
| 20260510095814 | 55 | 180 | 0.0 | 0.0 | 0.00 | 0.00 | 0.00 | 86 | 1013.7 |
| 20260510095309 | 55 | 180 | 0.0 | 0.0 | 0.00 | 0.00 | 0.00 | 86 | 1013.9 |
| 20260510094808 | 55 | 180 | 0.0 | 0.0 | 0.00 | 0.00 | 0.00 | 86 | 1013.7 |
| 20260510094304 | 55 | 180 | 0.0 | 0.0 | 0.00 | 0.00 | 0.00 | 86 | 1013.7 |
| 20260510093800 | 55 | 180 | 0.0 | 0.9 | 0.00 | 0.00 | 0.00 | 86 | 1013.8 |
| 20260510093257 | 56 | 157 | 0.0 | 0.9 | 0.00 | 0.00 | 0.00 | 86 | 1013.7 |
| 20260510092753 | 56 | 172 | 0.0 | 0.0 | 0.00 | 0.00 | 0.00 | 85 | 1013.6 |
| 20260510092249 | 56 | 270 | 0.0 | 0.0 | 0.00 | 0.00 | 0.00 | 85 | 1013.8 |
| 20260510091745 | 56 | 270 | 0.0 | 0.0 | 0.00 | 0.00 | 0.00 | 85 | 1013.6 |
| 20260510091243 | 56 | 270 | 0.0 | 0.0 | 0.00 | 0.00 | 0.00 | 85 | 1013.7 |
| 20260510090739 | 56 | 270 | 0.0 | 0.0 | 0.00 | 0.00 | 0.00 | 85 | 1013.6 |
| 20260510090236 | 56 | 270 | 0.0 | 0.0 | 0.00 | 0.00 | 0.00 | 85 | 1013.4 |
| 20260510085731 | 56 | 270 | 0.0 | 0.0 | 0.00 | 0.00 | 0.00 | 85 | 1013.3 |
| 20260510085226 | 56 | 270 | 0.0 | 0.0 | 0.00 | 0.00 | 0.00 | 85 | 1013.3 |
| 20260510084722 | 57 | 270 | 0.0 | 0.0 | 0.00 | 0.00 | 0.00 | 85 | 1013.5 |
| 20260510084219 | 57 | 270 | 0.0 | 0.0 | 0.00 | 0.00 | 0.00 | 85 | 1013.3 |
| 20260510083715 | 57 | 270 | 0.0 | 0.0 | 0.00 | 0.00 | 0.00 | 85 | 1013.3 |
| 20260510083213 | 57 | 270 | 0.0 | 0.0 | 0.00 | 0.00 | 0.00 | 85 | 1013.2 |
| 20260510082709 | 57 | 270 | 0.0 | 0.0 | 0.00 | 0.00 | 0.00 | 85 | 1013.0 |
| 20260510082205 | 57 | 270 | 0.0 | 0.0 | 0.00 | 0.00 | 0.00 | 85 | 1013.0 |
| 20260510081704 | 57 | 270 | 0.0 | 0.0 | 0.00 | 0.00 | 0.00 | 85 | 1013.0 |
| 20260510081201 | 57 | 270 | 0.0 | 0.0 | 0.00 | 0.00 | 0.00 | 85 | 1013.0 |
| 20260510080655 | 57 | 270 | 0.0 | 0.0 | 0.00 | 0.00 | 0.00 | 85 | 1013.0 |
| 20260510080152 | 57 | 270 | 0.0 | 0.0 | 0.00 | 0.00 | 0.00 | 84 | 1012.8 |
| 20260510075648 | 57 | 270 | 0.0 | 0.0 | 0.00 | 0.00 | 0.00 | 84 | 1012.8 |
| 20260510075146 | 57 | 270 | 0.0 | 0.0 | 0.00 | 0.00 | 0.00 | 84 | 1012.8 |
| 20260510074643 | 57 | 188 | 0.0 | 0.0 | 0.00 | 0.00 | 0.00 | 84 | 1012.9 |
| 20260510074139 | 58 | 185 | 0.0 | 0.9 | 0.00 | 0.00 | 0.00 | 84 | 1012.8 |
| 20260510073636 | 58 | 180 | 0.0 | 0.0 | 0.00 | 0.00 | 0.00 | 84 | 1012.7 |
| 20260510073132 | 58 | 180 | 0.0 | 0.0 | 0.00 | 0.00 | 0.00 | 84 | 1012.9 |
| 20260510072628 | 58 | 180 | 0.0 | 0.0 | 0.00 | 0.00 | 0.00 | 84 | 1012.7 |
| 20260510072124 | 58 | 180 | 0.0 | 0.0 | 0.00 | 0.00 | 0.00 | 84 | 1012.7 |
| 20260510071620 | 58 | 180 | 0.0 | 0.0 | 0.00 | 0.00 | 0.00 | 84 | 1012.7 |
| 20260510071118 | 58 | 180 | 0.0 | 0.0 | 0.00 | 0.00 | 0.00 | 84 | 1012.8 |
| 20260510070615 | 58 | 180 | 0.0 | 0.0 | 0.00 | 0.00 | 0.00 | 84 | 1012.8 |
| 20260510070113 | 58 | 0 | 0.0 | 0.0 | 0.00 | 0.00 | 0.00 | 83 | 1012.5 |
| 20260510065609 | 58 | 0 | 0.0 | 0.9 | 0.00 | 0.00 | 0.00 | 83 | 1012.8 |
| 20260510065105 | 58 | 0 | 0.0 | 0.9 | 0.00 | 0.00 | 0.00 | 83 | 1012.9 |
| 20260510064601 | 59 | 90 | 0.0 | 0.0 | 0.00 | 0.00 | 0.00 | 83 | 1012.8 |
| 20260510064058 | 59 | 90 | 0.0 | 0.0 | 0.00 | 0.00 | 0.00 | 83 | 1012.8 |
| 20260510063555 | 59 | 90 | 0.0 | 0.0 | 0.00 | 0.00 | 0.00 | 83 | 1012.7 |
| 20260510063052 | 59 | 90 | 0.0 | 0.9 | 0.00 | 0.00 | 0.00 | 83 | 1012.8 |
| 20260510062548 | 59 | 188 | 0.0 | 0.0 | 0.00 | 0.00 | 0.00 | 83 | 1012.9 |
| 20260510062043 | 59 | 172 | 0.0 | 0.9 | 0.00 | 0.00 | 0.00 | 83 | 1012.8 |
| 20260510061540 | 59 | 353 | 0.0 | 0.0 | 0.00 | 0.00 | 0.00 | 82 | 1012.9 |
| 20260510061036 | 59 | 353 | 0.0 | 0.0 | 0.00 | 0.00 | 0.00 | 82 | 1012.5 |
| 20260510060533 | 59 | 353 | 0.0 | 0.9 | 0.00 | 0.00 | 0.00 | 82 | 1012.9 |
| 20260510060029 | 59 | 262 | 0.0 | 0.0 | 0.00 | 0.00 | 0.00 | 82 | 1012.8 |
| 20260510055525 | 60 | 180 | 0.0 | 0.0 | 0.00 | 0.00 | 0.00 | 82 | 1012.8 |
| 20260510055024 | 60 | 180 | 0.0 | 0.0 | 0.00 | 0.00 | 0.00 | 82 | 1013.1 |
| 20260510054519 | 60 | 180 | 0.0 | 0.0 | 0.00 | 0.00 | 0.00 | 82 | 1012.7 |
| 20260510054014 | 60 | 180 | 0.0 | 0.9 | 0.00 | 0.00 | 0.00 | 82 | 1012.9 |
| 20260510053509 | 60 | 180 | 0.0 | 0.0 | 0.00 | 0.00 | 0.00 | 81 | 1012.9 |
| 20260510053006 | 60 | 180 | 0.0 | 0.0 | 0.00 | 0.00 | 0.00 | 81 | 1013.0 |
| 20260510052502 | 60 | 180 | 0.0 | 0.0 | 0.00 | 0.00 | 0.00 | 81 | 1013.0 |
| 20260510051958 | 60 | 195 | 0.0 | 0.9 | 0.00 | 0.00 | 0.00 | 81 | 1013.2 |
| 20260510051454 | 60 | 203 | 0.0 | 0.9 | 0.00 | 0.00 | 0.00 | 81 | 1013.3 |
| 20260510050951 | 60 | 208 | 0.0 | 0.0 | 0.00 | 0.00 | 0.00 | 81 | 1013.2 |
| 20260510050448 | 60 | 208 | 0.0 | 0.0 | 0.00 | 0.00 | 0.00 | 81 | 1013.2 |
| 20260510045945 | 60 | 208 | 0.0 | 0.0 | 0.00 | 0.00 | 0.00 | 81 | 1013.1 |
| 20260510045442 | 60 | 208 | 0.0 | 0.0 | 0.00 | 0.00 | 0.00 | 80 | 1013.0 |
| 20260510044938 | 61 | 208 | 0.0 | 0.0 | 0.00 | 0.00 | 0.00 | 80 | 1012.9 |
| 20260510044436 | 61 | 208 | 0.0 | 2.6 | 0.00 | 0.00 | 0.00 | 80 | 1013.2 |
| 20260510043932 | 61 | 215 | 0.0 | 0.0 | 0.00 | 0.00 | 0.00 | 80 | 1013.2 |
| 20260510043428 | 61 | 215 | 0.0 | 0.0 | 0.00 | 0.00 | 0.00 | 80 | 1013.2 |
| 20260510042927 | 61 | 215 | 0.0 | 0.0 | 0.00 | 0.00 | 0.00 | 80 | 1013.1 |
| 20260510042422 | 61 | 215 | 0.0 | 1.7 | 0.00 | 0.00 | 0.00 | 80 | 1013.1 |
| 20260510041918 | 61 | 172 | 0.0 | 0.9 | 0.00 | 0.00 | 0.00 | 79 | 1013.2 |
| 20260510041415 | 61 | 180 | 0.0 | 1.7 | 0.00 | 0.00 | 0.00 | 79 | 1013.0 |
| 20260510040913 | 61 | 82 | 0.0 | 0.0 | 0.00 | 0.00 | 0.00 | 79 | 1013.1 |
| 20260510040409 | 61 | 82 | 0.0 | 0.0 | 0.00 | 0.00 | 0.00 | 79 | 1012.8 |
| 20260510035859 | 62 | 82 | 0.0 | 0.0 | 0.00 | 0.00 | 0.00 | 79 | 1012.8 |
| 20260510035356 | 62 | 209 | 0.0 | 0.9 | 0.00 | 0.00 | 0.00 | 78 | 1013.1 |
| 20260510034850 | 62 | 114 | 0.0 | 0.0 | 0.00 | 0.00 | 0.00 | 78 | 1013.1 |
| 20260510034349 | 62 | 90 | 0.0 | 0.0 | 0.00 | 0.00 | 0.00 | 78 | 1013.2 |
| 20260510033845 | 62 | 90 | 0.0 | 0.0 | 0.00 | 0.00 | 0.00 | 77 | 1013.1 |
| 20260510033342 | 62 | 255 | 0.0 | 0.0 | 0.00 | 0.00 | 0.00 | 77 | 1013.1 |
| 20260510032839 | 63 | 255 | 0.0 | 0.0 | 0.00 | 0.00 | 0.00 | 77 | 1012.9 |
| 20260510032336 | 63 | 255 | 0.0 | 0.0 | 0.00 | 0.00 | 0.00 | 77 | 1013.1 |
| 20260510031831 | 63 | 255 | 0.0 | 0.9 | 0.00 | 0.00 | 0.00 | 76 | 1012.9 |
| 20260510031327 | 63 | 240 | 0.0 | 0.0 | 0.00 | 0.00 | 0.00 | 76 | 1013.0 |
| 20260510030827 | 63 | 180 | 0.0 | 0.0 | 0.00 | 0.00 | 0.00 | 76 | 1012.9 |
| 20260510030323 | 64 | 120 | 0.0 | 1.7 | 0.00 | 0.00 | 0.00 | 76 | 1013.0 |
| 20260510025821 | 64 | 180 | 0.0 | 2.6 | 0.00 | 0.00 | 0.00 | 76 | 1012.9 |
| 20260510025318 | 64 | 174 | 0.0 | 1.7 | 0.00 | 0.00 | 0.00 | 75 | 1012.8 |
| 20260510024814 | 64 | 180 | 0.0 | 2.6 | 0.00 | 0.00 | 0.00 | 75 | 1012.8 |
| 20260510024312 | 64 | 106 | 0.0 | 1.7 | 0.00 | 0.00 | 0.00 | 75 | 1012.9 |
| 20260510023808 | 65 | 188 | 0.0 | 0.9 | 0.00 | 0.00 | 0.00 | 75 | 1012.9 |
| 20260510023304 | 65 | 270 | 0.9 | 3.5 | 0.00 | 0.00 | 0.00 | 75 | 1013.0 |
| 20260510022802 | 65 | 201 | 1.7 | 1.7 | 0.00 | 0.00 | 0.00 | 75 | 1012.8 |
| 20260510022301 | 65 | 210 | 1.7 | 2.6 | 0.00 | 0.00 | 0.00 | 74 | 1012.7 |
| 20260510021800 | 65 | 180 | 0.0 | 2.6 | 0.00 | 0.00 | 0.00 | 74 | 1012.7 |
| 20260510021258 | 65 | 215 | 0.0 | 2.6 | 0.00 | 0.00 | 0.00 | 74 | 1012.9 |
| 20260510020754 | 65 | 187 | 0.9 | 1.7 | 0.00 | 0.00 | 0.00 | 74 | 1012.6 |
| 20260510020253 | 66 | 180 | 0.0 | 1.7 | 0.00 | 0.00 | 0.00 | 74 | 1012.8 |
| 20260510015750 | 66 | 209 | 0.0 | 2.6 | 0.00 | 0.00 | 0.00 | 73 | 1012.9 |
| 20260510015246 | 66 | 180 | 0.9 | 2.6 | 0.00 | 0.00 | 0.00 | 73 | 1012.7 |
| 20260510014741 | 66 | 185 | 0.0 | 1.7 | 0.00 | 0.00 | 0.00 | 73 | 1012.6 |
| 20260510014239 | 66 | 249 | 0.9 | 4.3 | 0.00 | 0.00 | 0.00 | 73 | 1012.5 |
| 20260510013735 | 66 | 239 | 1.7 | 1.7 | 0.00 | 0.00 | 0.00 | 73 | 1012.4 |
| 20260510013230 | 66 | 190 | 1.7 | 1.7 | 0.00 | 0.00 | 0.00 | 73 | 1012.3 |
| 20260510012725 | 66 | 200 | 0.9 | 2.6 | 0.00 | 0.00 | 0.00 | 72 | 1012.3 |
| 20260510012221 | 66 | 199 | 1.7 | 2.6 | 0.00 | 0.00 | 0.00 | 72 | 1012.1 |
| 20260510011720 | 66 | 198 | 1.7 | 2.6 | 0.00 | 0.00 | 0.00 | 72 | 1012.1 |
| 20260510011216 | 67 | 180 | 1.7 | 3.5 | 0.00 | 0.00 | 0.00 | 72 | 1011.9 |
| 20260510010713 | 67 | 198 | 1.7 | 1.7 | 0.00 | 0.00 | 0.00 | 71 | 1011.9 |
| 20260510010210 | 67 | 209 | 1.7 | 1.7 | 0.00 | 0.00 | 0.00 | 71 | 1011.7 |
| 20260510005706 | 67 | 180 | 1.7 | 2.6 | 0.00 | 0.00 | 0.00 | 71 | 1011.6 |
| 20260510005203 | 67 | 203 | 0.0 | 1.7 | 0.00 | 0.00 | 0.00 | 71 | 1011.8 |
| 20260510004702 | 67 | 180 | 0.9 | 3.5 | 0.00 | 0.00 | 0.00 | 71 | 1011.7 |
| 20260510004159 | 67 | 225 | 1.7 | 2.6 | 0.00 | 0.00 | 0.00 | 71 | 1011.4 |
| 20260510003656 | 67 | 261 | 1.7 | 2.6 | 0.00 | 0.00 | 0.00 | 70 | 1011.6 |
| 20260510003151 | 67 | 225 | 0.0 | 2.6 | 0.00 | 0.00 | 0.00 | 70 | 1011.1 |
| 20260510002646 | 68 | 240 | 0.9 | 2.6 | 0.00 | 0.00 | 0.00 | 69 | 1011.3 |
| 20260510002143 | 68 | 200 | 0.9 | 2.6 | 0.00 | 0.00 | 0.00 | 69 | 1011.4 |
| 20260510001640 | 69 | 203 | 0.0 | 1.7 | 0.00 | 0.00 | 0.00 | 69 | 1011.2 |
| 20260510001139 | 69 | 209 | 0.0 | 1.7 | 0.00 | 0.00 | 0.00 | 68 | 1011.4 |
| 20260510000639 | 69 | 235 | 0.0 | 1.7 | 0.00 | 0.00 | 0.00 | 68 | 1011.3 |
| 20260510000137 | 69 | 220 | 1.7 | 1.7 | 0.00 | 0.00 | 0.00 | 67 | 1011.3 |
| 20260509235632 | 70 | 188 | 0.0 | 2.6 | 0.00 | 0.00 | 0.00 | 67 | 1011.1 |
| 20260509235129 | 70 | 203 | 0.9 | 1.7 | 0.00 | 0.00 | 0.00 | 66 | 1011.3 |
| 20260509234625 | 70 | 233 | 0.0 | 0.0 | 0.00 | 0.00 | 0.00 | 66 | 1011.1 |
| 20260509234123 | 70 | 200 | 0.0 | 0.9 | 0.00 | 0.00 | 0.00 | 66 | 1011.1 |
| 20260509233621 | 70 | 206 | 0.0 | 2.6 | 0.00 | 0.00 | 0.00 | 65 | 1010.8 |
| 20260509233118 | 71 | 183 | 2.6 | 3.5 | 0.00 | 0.00 | 0.00 | 65 | 1010.9 |
| 20260509232614 | 71 | 166 | 0.0 | 1.7 | 0.00 | 0.00 | 0.00 | 65 | 1010.6 |
| 20260509232111 | 71 | 0 | 0.0 | 5.2 | 0.00 | 0.00 | 0.00 | 64 | 1010.7 |
| 20260509231608 | 71 | 217 | 0.0 | 1.7 | 0.00 | 0.00 | 0.00 | 64 | 1010.9 |
| 20260509231105 | 71 | 172 | 0.0 | 7.0 | 0.00 | 0.00 | 0.00 | 64 | 1010.6 |
| 20260509230602 | 71 | 206 | 4.3 | 4.3 | 0.00 | 0.00 | 0.00 | 64 | 1010.6 |
| 20260509230059 | 71 | 236 | 0.0 | 8.7 | 0.00 | 0.00 | 0.00 | 64 | 1010.6 |
| 20260509225554 | 71 | 99 | 0.0 | 2.6 | 0.00 | 0.00 | 0.00 | 64 | 1010.6 |
| 20260509225050 | 72 | 221 | 3.5 | 4.3 | 0.00 | 0.00 | 0.00 | 64 | 1010.4 |
| 20260509224546 | 72 | 225 | 2.6 | 3.5 | 0.00 | 0.00 | 0.00 | 64 | 1010.5 |
| 20260509224043 | 72 | 352 | 0.0 | 4.3 | 0.00 | 0.00 | 0.00 | 64 | 1010.2 |
| 20260509223540 | 72 | 168 | 1.7 | 4.3 | 0.00 | 0.00 | 0.00 | 64 | 1010.4 |
| 20260509223038 | 72 | 180 | 0.0 | 1.7 | 0.00 | 0.00 | 0.00 | 64 | 1010.4 |
| 20260509222533 | 72 | 261 | 0.0 | 2.6 | 0.00 | 0.00 | 0.00 | 65 | 1010.4 |
| 20260509222035 | 72 | 191 | 1.7 | 5.2 | 0.00 | 0.00 | 0.00 | 65 | 1010.3 |
| 20260509221525 | 71 | 204 | 1.7 | 7.0 | 0.00 | 0.00 | 0.00 | 65 | 1010.5 |
| 20260509221021 | 71 | 186 | 3.5 | 3.5 | 0.00 | 0.00 | 0.00 | 65 | 1010.4 |
| 20260509220518 | 71 | 248 | 2.6 | 6.1 | 0.00 | 0.00 | 0.00 | 64 | 1010.3 |
| 20260509220014 | 71 | 225 | 1.7 | 4.3 | 0.00 | 0.00 | 0.00 | 64 | 1010.6 |
| 20260509215509 | 71 | 188 | 1.7 | 3.5 | 0.00 | 0.00 | 0.00 | 64 | 1010.5 |
| 20260509215007 | 71 | 334 | 0.0 | 3.5 | 0.00 | 0.00 | 0.00 | 63 | 1010.4 |
| 20260509214504 | 72 | 212 | 1.7 | 3.5 | 0.00 | 0.00 | 0.00 | 63 | 1010.4 |
| 20260509214001 | 72 | 243 | 2.6 | 3.5 | 0.00 | 0.00 | 0.00 | 62 | 1010.6 |
| 20260509213457 | 73 | 261 | 0.0 | 2.6 | 0.00 | 0.00 | 0.00 | 62 | 1010.4 |
| 20260509212954 | 73 | 7 | 0.0 | 2.6 | 0.00 | 0.00 | 0.00 | 61 | 1010.3 |
| 20260509212451 | 73 | 207 | 4.3 | 7.0 | 0.00 | 0.00 | 0.00 | 61 | 1010.5 |
| 20260509211947 | 73 | 199 | 1.7 | 5.2 | 0.00 | 0.00 | 0.00 | 61 | 1010.4 |
| 20260509211443 | 73 | 151 | 0.9 | 5.2 | 0.00 | 0.00 | 0.00 | 60 | 1010.4 |
| 20260509210940 | 73 | 6 | 2.6 | 4.3 | 0.00 | 0.00 | 0.00 | 61 | 1010.2 |
| 20260509210437 | 73 | 234 | 0.9 | 11.3 | 0.00 | 0.00 | 0.00 | 60 | 1009.8 |
| 20260509205932 | 73 | 79 | 1.7 | 5.2 | 0.00 | 0.00 | 0.00 | 61 | 1009.9 |
| 20260509205427 | 73 | 279 | 0.0 | 3.5 | 0.00 | 0.00 | 0.00 | 61 | 1009.9 |
| 20260509204923 | 72 | 100 | 0.0 | 1.7 | 0.00 | 0.00 | 0.00 | 61 | 1010.1 |
| 20260509204420 | 72 | 270 | 0.0 | 6.1 | 0.00 | 0.00 | 0.00 | 61 | 1010.3 |
| 20260509203917 | 72 | 186 | 6.1 | 7.8 | 0.00 | 0.00 | 0.00 | 61 | 1010.4 |
| 20260509203412 | 73 | 180 | 0.0 | 4.3 | 0.00 | 0.00 | 0.00 | 61 | 1010.3 |
| 20260509202910 | 73 | 297 | 0.0 | 1.7 | 0.00 | 0.00 | 0.00 | 62 | 1010.4 |
| 20260509202406 | 72 | 82 | 0.9 | 2.6 | 0.00 | 0.00 | 0.00 | 62 | 1010.5 |
| 20260509201901 | 72 | 240 | 2.6 | 4.3 | 0.00 | 0.00 | 0.00 | 62 | 1010.5 |
| 20260509201356 | 72 | 291 | 0.9 | 6.1 | 0.00 | 0.00 | 0.00 | 63 | 1010.2 |
| 20260509200854 | 72 | 196 | 0.0 | 7.8 | 0.00 | 0.00 | 0.00 | 63 | 1010.3 |
| 20260509200348 | 72 | 215 | 0.0 | 7.8 | 0.00 | 0.00 | 0.00 | 63 | 1010.4 |
| 20260509195846 | 72 | 270 | 1.7 | 2.6 | 0.00 | 0.00 | 0.00 | 63 | 1010.3 |
| 20260509195345 | 72 | 194 | 2.6 | 4.3 | 0.00 | 0.00 | 0.00 | 64 | 1010.5 |
| 20260509194845 | 72 | 190 | 2.6 | 2.6 | 0.00 | 0.00 | 0.00 | 63 | 1010.3 |
| 20260509194341 | 72 | 205 | 3.5 | 9.6 | 0.00 | 0.00 | 0.00 | 64 | 1010.7 |
| 20260509193838 | 71 | 278 | 0.0 | 4.3 | 0.00 | 0.00 | 0.00 | 64 | 1010.7 |
| 20260509193332 | 71 | 186 | 0.0 | 4.3 | 0.00 | 0.00 | 0.00 | 63 | 1010.7 |
| 20260509192829 | 71 | 208 | 6.1 | 6.1 | 0.00 | 0.00 | 0.00 | 64 | 1010.9 |
| 20260509192325 | 71 | 35 | 0.0 | 5.2 | 0.00 | 0.00 | 0.00 | 63 | 1010.9 |
| 20260509191820 | 72 | 262 | 0.0 | 2.6 | 0.00 | 0.00 | 0.00 | 64 | 1010.8 |
| 20260509191316 | 71 | 174 | 4.3 | 8.7 | 0.00 | 0.00 | 0.00 | 63 | 1010.7 |
| 20260509190812 | 72 | 157 | 0.0 | 2.6 | 0.00 | 0.00 | 0.00 | 64 | 1010.6 |
| 20260509190310 | 71 | 207 | 5.2 | 5.2 | 0.00 | 0.00 | 0.00 | 64 | 1010.9 |
| 20260509185807 | 71 | 180 | 0.0 | 5.2 | 0.00 | 0.00 | 0.00 | 64 | 1010.9 |
| 20260509185306 | 71 | 209 | 2.6 | 3.5 | 0.00 | 0.00 | 0.00 | 64 | 1010.6 |
| 20260509184800 | 71 | 194 | 0.0 | 2.6 | 0.00 | 0.00 | 0.00 | 65 | 1010.9 |
| 20260509184258 | 71 | 225 | 0.0 | 3.5 | 0.00 | 0.00 | 0.00 | 66 | 1010.7 |
| 20260509183754 | 70 | 358 | 0.0 | 3.5 | 0.00 | 0.00 | 0.00 | 65 | 1010.9 |
| 20260509183249 | 70 | 74 | 0.0 | 2.6 | 0.00 | 0.00 | 0.00 | 65 | 1011.2 |
| 20260509182745 | 70 | 201 | 3.5 | 4.3 | 0.00 | 0.00 | 0.00 | 64 | 1011.2 |
| 20260509182243 | 70 | 229 | 0.0 | 5.2 | 0.00 | 0.00 | 0.00 | 65 | 1011.2 |
| 20260509181740 | 70 | 210 | 0.0 | 2.6 | 0.00 | 0.00 | 0.00 | 65 | 1011.4 |
| 20260509181237 | 70 | 185 | 0.0 | 4.3 | 0.00 | 0.00 | 0.00 | 64 | 1011.3 |
| 20260509180734 | 70 | 236 | 2.6 | 7.0 | 0.00 | 0.00 | 0.00 | 65 | 1011.6 |
| 20260509180231 | 70 | 204 | 3.5 | 3.5 | 0.00 | 0.00 | 0.00 | 64 | 1011.4 |
| 20260509175727 | 70 | 57 | 1.7 | 3.5 | 0.00 | 0.00 | 0.00 | 64 | 1011.5 |
| 20260509175223 | 70 | 172 | 0.0 | 6.1 | 0.00 | 0.00 | 0.00 | 64 | 1011.3 |
| 20260509174719 | 70 | 184 | 1.7 | 3.5 | 0.00 | 0.00 | 0.00 | 63 | 1011.3 |
| 20260509174214 | 71 | 215 | 2.6 | 6.1 | 0.00 | 0.00 | 0.00 | 62 | 1011.4 |
| 20260509173711 | 71 | 270 | 0.9 | 5.2 | 0.00 | 0.00 | 0.00 | 65 | 1011.3 |
| 20260509173207 | 70 | 237 | 0.0 | 3.5 | 0.00 | 0.00 | 0.00 | 64 | 1011.3 |
| 20260509172703 | 70 | 165 | 3.5 | 3.5 | 0.00 | 0.00 | 0.00 | 65 | 1011.6 |
| 20260509172200 | 70 | 203 | 0.0 | 6.1 | 0.00 | 0.00 | 0.00 | 65 | 1011.5 |
| 20260509171655 | 70 | 286 | 0.9 | 3.5 | 0.00 | 0.00 | 0.00 | 64 | 1011.5 |
| 20260509171151 | 71 | 233 | 0.0 | 6.1 | 0.00 | 0.00 | 0.00 | 64 | 1011.6 |
| 20260509170649 | 72 | 54 | 0.9 | 7.0 | 0.00 | 0.00 | 0.00 | 64 | 1011.8 |
| 20260509170144 | 72 | 180 | 1.7 | 6.1 | 0.00 | 0.00 | 0.00 | 66 | 1012.0 |
| 20260509165643 | 71 | 264 | 0.0 | 2.6 | 0.00 | 0.00 | 0.00 | 68 | 1011.9 |
| 20260509165139 | 70 | 5 | 2.6 | 2.6 | 0.00 | 0.00 | 0.00 | 67 | 1011.9 |
| 20260509164629 | 71 | 228 | 0.0 | 4.3 | 0.00 | 0.00 | 0.00 | 67 | 1012.1 |
| 20260509164125 | 71 | 265 | 1.7 | 4.3 | 0.00 | 0.00 | 0.00 | 68 | 1012.1 |
| 20260509163623 | 70 | 180 | 3.5 | 7.8 | 0.00 | 0.00 | 0.00 | 68 | 1012.4 |
| 20260509163118 | 69 | 270 | 0.0 | 4.3 | 0.00 | 0.00 | 0.00 | 68 | 1012.4 |